Location: Newark
(33.9035°S, 18.4112°E)
Time: 10:58:56
(UTC+00:00)

STARLINK-1073 - Pass Details

Date: 27 January 2020
Orbit: 532 x 534 km, 53.0° (Epoch: 18 February)

Event Time Altitude Azimuth Distance (km) Brightness Sun altitude
Exits shadow 01:25:01 19° 207° (SSW) 1,311 5.7 -27.0°
Drops below altitude 10° 01:27:43 10° 166° (SSE) 1,793 7.0 -26.6°
Sets 01:30:28 0° 147° (SSE) 2,690 8.4 -26.3°
